Weather History for Farmington, NM

Change the Weather History Date:

Tuesday, February 12, 2013

  Actual Average Record
Temperature  
Mean Temperature 22 °F -  
Max Temperature 37 °F 46 °F 60 °F (1987)
Min Temperature 8 °F 22 °F 8 °F (2013)
Degree Days  
Heating Degree Days 42    
Moisture  
Dew Point 11 °F    
Average Humidity 60    
Maximum Humidity 84    
Minimum Humidity 28    
Precipitation  
Precipitation 0.00 in - - ()
Sea Level Pressure  
Sea Level Pressure 30.24 in    
Wind  
Wind Speed 5 mph (NW)    
Max Wind Speed 17 mph    
Max Gust Speed 23 mph    
Visibility 10 miles    
Events      
Averages and records for this station are not official NWS values.
T = Trace of Precipitation, MM = Missing Value Source: NWS Daily Summary

Daily Weather History Graph

Daily Weather History Graph

Search for Another Location

Airport:

Trip Planner

Search our weather history database for the weather conditions in past years. The results will help you decide how hot, cold, wet, or windy it might be!

Date:

Astronomy

Feb. 12, 2013 Rise Set
Actual Time 7:04 AM MST 5:50 PM MST
Civil Twilight 6:37 AM MST 6:17 PM MST
Nautical Twilight 6:07 AM MST 6:47 PM MST
Astronomical Twilight 5:37 AM MST 7:17 PM MST
Moon 8:08 AM MST (2/12) 8:48 PM MST (2/12)
Length of Visible Light 11h 39m
Length of Day
10h 46m
Waxing Crescent, 8% of the Moon is Illuminated
Feb 12
Waxing Crescent
Feb 17
First Quarter
Feb 25
Full
Mar 4
Last Quarter
Mar 11
New

Hourly Weather History & Observations

Time (MST) Temp. Windchill Dew Point Humidity Pressure Visibility Wind Dir Wind Speed Gust Speed Precip Events Conditions
12:53 AM 18.0 °F - 12.0 °F 78% 30.14 in 10.0 mi Calm Calm - N/A   Clear
1:53 AM 15.1 °F 9.4 °F 10.9 °F 84% 30.14 in 10.0 mi North 3.5 mph - N/A   Clear
2:53 AM 14.0 °F 2.9 °F 9.0 °F 80% 30.14 in 10.0 mi NNE 8.1 mph - N/A   Clear
3:53 AM 12.0 °F 5.9 °F 7.0 °F 80% 30.16 in 10.0 mi North 3.5 mph - N/A   Clear
4:53 AM 10.9 °F 2.9 °F 6.1 °F 81% 30.19 in 10.0 mi North 4.6 mph - N/A   Clear
5:53 AM 10.0 °F 0.4 °F 5.0 °F 80% 30.23 in 10.0 mi NNE 5.8 mph - N/A   Clear
6:53 AM 9.0 °F 0.6 °F 3.9 °F 80% 30.26 in 10.0 mi North 4.6 mph - N/A   Clear
7:53 AM 12.9 °F 6.9 °F 7.0 °F 77% 30.27 in 10.0 mi NE 3.5 mph - N/A   Clear
8:53 AM 18.0 °F 12.7 °F 12.0 °F 78% 30.29 in 10.0 mi SE 3.5 mph - N/A   Clear
9:53 AM 23.0 °F - 14.0 °F 68% 30.28 in 10.0 mi Calm Calm - N/A   Clear
10:53 AM 26.1 °F - 12.9 °F 58% 30.28 in 10.0 mi Calm Calm - N/A   Clear
11:53 AM 30.0 °F 25.2 °F 14.0 °F 51% 30.26 in 10.0 mi WNW 4.6 mph - N/A   Clear
12:53 PM 34.0 °F 25.0 °F 15.1 °F 46% 30.22 in 10.0 mi West 12.7 mph - N/A   Clear
1:53 PM 35.1 °F 25.5 °F 14.0 °F 42% 30.21 in 10.0 mi West 15.0 mph 19.6 mph N/A   Partly Cloudy
2:53 PM 37.0 °F 29.8 °F 12.9 °F 37% 30.19 in 10.0 mi WNW 10.4 mph 19.6 mph N/A   Clear
3:53 PM 36.0 °F 26.0 °F 12.9 °F 39% 30.21 in 10.0 mi WNW 17.3 mph 23.0 mph N/A   Clear
4:53 PM 34.0 °F 24.2 °F 12.9 °F 42% 30.23 in 10.0 mi WNW 15.0 mph - N/A   Clear
5:53 PM 30.9 °F 20.7 °F 14.0 °F 50% 30.26 in 10.0 mi WNW 13.8 mph - N/A   Clear
6:53 PM 28.9 °F 20.4 °F 15.1 °F 56% 30.30 in 10.0 mi West 9.2 mph - N/A   Clear
7:53 PM 28.0 °F 21.7 °F 15.1 °F 58% 30.29 in 10.0 mi West 5.8 mph - N/A   Clear
8:53 PM 27.0 °F 18.7 °F 12.9 °F 56% 30.29 in 10.0 mi West 8.1 mph - N/A   Clear
9:53 PM 25.0 °F - 12.9 °F 60% 30.29 in 10.0 mi Calm Calm - N/A   Clear
10:53 PM 24.1 °F - 12.0 °F 60% 30.28 in 10.0 mi Calm Calm - N/A   Clear
11:53 PM 23.0 °F 17.0 °F 12.0 °F 63% 30.26 in 10.0 mi WNW 4.6 mph - N/A   Clear